When you browse on this site, cookies collect data to enhance your experience and personalize the content and advertising you see.
Visit our Privacy Policy to learn more. By continuing to use the site, you agree to this use of cookies and data.

Hourly Weather Tubbergen

Today, 26 September, Saturday

Time Temperature Precipitation Wind Pressure Humidity
00:00 +11°C° 0 mm 4 mps 743 mmHg 76%
01:00 +11°C° 0 mm 4 mps 743 mmHg 77%
02:00 +10°C° 0 mm 4 mps 743 mmHg 78%
03:00 +10°C° 0 mm 4 mps 743 mmHg 79%
04:00 +10°C° 0 mm 4 mps 744 mmHg 80%
05:00 +9°C° 0 mm 3 mps 744 mmHg 82%
06:00 +9°C° 0 mm 3 mps 744 mmHg 83%
07:00 +10°C° 0 mm 3 mps 745 mmHg 79%
08:00 +11°C° 0 mm 3 mps 745 mmHg 75%
09:00 +12°C° 0 mm 3 mps 746 mmHg 71%
10:00 +13°C° 0 mm 3 mps 746 mmHg 67%
11:00 +14°C° 0 mm 3 mps 746 mmHg 64%
12:00 +15°C° 0 mm 4 mps 746 mmHg 61%
13:00 +15°C° 0 mm 4 mps 746 mmHg 63%
14:00 +14°C° 0 mm 4 mps 747 mmHg 66%
15:00 +14°C° 0 mm 4 mps 747 mmHg 69%
16:00 +13°C° 0.4 mm 3 mps 747 mmHg 76%
17:00 +12°C° 0.4 mm 3 mps 747 mmHg 82%
18:00 +12°C° 0.4 mm 3 mps 747 mmHg 89%
19:00 +12°C° 1.4 mm 4 mps 746 mmHg 91%
20:00 +12°C° 1.4 mm 4 mps 746 mmHg 93%
21:00 +13°C° 1.4 mm 5 mps 745 mmHg 95%
22:00 +13°C° 1.9 mm 6 mps 745 mmHg 95%
23:00 +12°C° 1.9 mm 7 mps 744 mmHg 94%

Tomorrow, 27 September, Sunday

Time Temperature Precipitation Wind Pressure Humidity
00:00 +14°C° 1.9 mm 7 mps 744 mmHg 94%
01:00 +14°C° 0.2 mm 7 mps 744 mmHg 94%
02:00 +14°C° 0.2 mm 6 mps 744 mmHg 94%
03:00 +14°C° 0.2 mm 6 mps 744 mmHg 94%
04:00 +13°C° 0 mm 5 mps 745 mmHg 94%
05:00 +13°C° 0 mm 4 mps 746 mmHg 93%
06:00 +12°C° 0 mm 3 mps 747 mmHg 93%
07:00 +13°C° 0 mm 3 mps 748 mmHg 89%
08:00 +13°C° 0 mm 3 mps 749 mmHg 86%
09:00 +13°C° 0 mm 3 mps 749 mmHg 82%
10:00 +14°C° 0 mm 3 mps 750 mmHg 79%
11:00 +16°C° 0 mm 2 mps 750 mmHg 76%
12:00 +16°C° 0 mm 2 mps 751 mmHg 72%
13:00 +16°C° 0 mm 2 mps 751 mmHg 74%
14:00 +16°C° 0 mm 2 mps 751 mmHg 76%
15:00 +15°C° 0 mm 2 mps 751 mmHg 78%
16:00 +15°C° 0 mm 1 mps 751 mmHg 81%
17:00 +15°C° 0 mm 1 mps 751 mmHg 84%
18:00 +14°C° 0 mm 1 mps 751 mmHg 87%
19:00 +14°C° 0.1 mm 1 mps 752 mmHg 89%
20:00 +14°C° 0.1 mm 2 mps 752 mmHg 91%
21:00 +14°C° 0.1 mm 2 mps 752 mmHg 93%
22:00 +14°C° 0 mm 2 mps 752 mmHg 94%
23:00 +15°C° 0 mm 2 mps 752 mmHg 95%

Day after tomorrow, 28 September, Monday

Time Temperature Precipitation Wind Pressure Humidity
00:00 +15°C° 0 mm 2 mps 752 mmHg 96%
01:00 +15°C° 0 mm 2 mps 752 mmHg 96%
02:00 +15°C° 0 mm 2 mps 752 mmHg 97%
03:00 +15°C° 0 mm 2 mps 752 mmHg 97%
04:00 +15°C° 0 mm 2 mps 752 mmHg 97%
05:00 +15°C° 0 mm 2 mps 752 mmHg 97%
06:00 +15°C° 0 mm 2 mps 752 mmHg 97%
07:00 +16°C° 0 mm 2 mps 752 mmHg 94%
08:00 +17°C° 0 mm 2 mps 753 mmHg 91%
09:00 +17°C° 0 mm 2 mps 753 mmHg 88%
10:00 +18°C° 0 mm 2 mps 753 mmHg 85%
11:00 +19°C° 0 mm 3 mps 753 mmHg 82%
12:00 +20°C° 0 mm 3 mps 753 mmHg 79%
13:00 +20°C° 0 mm 3 mps 753 mmHg 79%
14:00 +20°C° 0 mm 3 mps 753 mmHg 79%
15:00 +20°C° 0 mm 3 mps 753 mmHg 78%
16:00 +19°C° 0.2 mm 3 mps 753 mmHg 83%
17:00 +18°C° 0.2 mm 3 mps 753 mmHg 88%
18:00 +17°C° 0.2 mm 3 mps 754 mmHg 92%
19:00 +16°C° 0 mm 3 mps 754 mmHg 94%
20:00 +14°C° 0 mm 3 mps 754 mmHg 95%
21:00 +14°C° 0 mm 2 mps 754 mmHg 97%
22:00 +14°C° 0 mm 2 mps 755 mmHg 97%
23:00 +14°C° 0 mm 2 mps 755 mmHg 98%

29 September, Tuesday

Time Temperature Precipitation Wind Pressure Humidity
00:00 +14°C° 0 mm 2 mps 755 mmHg 98%
01:00 +14°C° 0 mm 2 mps 755 mmHg 98%
02:00 +14°C° 0 mm 2 mps 755 mmHg 98%
03:00 +15°C° 0 mm 2 mps 756 mmHg 98%
04:00 +15°C° 0.1 mm 2 mps 756 mmHg 98%
05:00 +15°C° 0.1 mm 2 mps 756 mmHg 98%
06:00 +16°C° 0.1 mm 3 mps 756 mmHg 97%
07:00 +16°C° 0.6 mm 3 mps 757 mmHg 97%
08:00 +16°C° 0.6 mm 3 mps 757 mmHg 96%
09:00 +16°C° 0.6 mm 3 mps 757 mmHg 95%
10:00 +15°C° 0.4 mm 4 mps 758 mmHg 92%
11:00 +15°C° 0.4 mm 4 mps 758 mmHg 90%
12:00 +15°C° 0.4 mm 4 mps 758 mmHg 87%
13:00 +17°C° 0.1 mm 4 mps 758 mmHg 81%
14:00 +17°C° 0.1 mm 4 mps 758 mmHg 74%
15:00 +18°C° 0.1 mm 4 mps 758 mmHg 68%
16:00 +17°C° 0 mm 3 mps 758 mmHg 73%
17:00 +15°C° 0 mm 2 mps 758 mmHg 77%
18:00 +14°C° 0 mm 2 mps 759 mmHg 81%
19:00 +13°C° 0 mm 1 mps 759 mmHg 83%
20:00 +13°C° 0 mm 1 mps 759 mmHg 84%
21:00 +11°C° 0 mm 0 mps 759 mmHg 85%
22:00 +12°C° 0 mm 1 mps 759 mmHg 85%
23:00 +12°C° 0 mm 1 mps 759 mmHg 85%

30 September, Wednesday

Time Temperature Precipitation Wind Pressure Humidity
00:00 +12°C° 0 mm 1 mps 759 mmHg 85%
01:00 +12°C° 0 mm 1 mps 758 mmHg 88%
02:00 +12°C° 0 mm 2 mps 758 mmHg 90%
03:00 +12°C° 0 mm 2 mps 758 mmHg 93%
04:00 +10°C° 0 mm 2 mps 758 mmHg 94%
05:00 +10°C° 0 mm 2 mps 758 mmHg 95%
06:00 +10°C° 0 mm 3 mps 758 mmHg 96%
07:00 +11°C° 0 mm 3 mps 758 mmHg 91%
08:00 +13°C° 0 mm 4 mps 758 mmHg 86%
09:00 +14°C° 0 mm 4 mps 758 mmHg 81%
10:00 +15°C° 0 mm 4 mps 758 mmHg 76%
11:00 +17°C° 0 mm 4 mps 758 mmHg 71%
12:00 +17°C° 0 mm 3 mps 758 mmHg 66%
13:00 +17°C° 0 mm 3 mps 757 mmHg 66%
14:00 +17°C° 0 mm 3 mps 757 mmHg 67%
15:00 +17°C° 0 mm 2 mps 757 mmHg 67%
16:00 +16°C° 0 mm 2 mps 757 mmHg 72%
17:00 +15°C° 0 mm 2 mps 757 mmHg 76%
18:00 +14°C° 0 mm 1 mps 757 mmHg 81%
19:00 +13°C° 0 mm 2 mps 757 mmHg 83%
20:00 +13°C° 0 mm 2 mps 757 mmHg 84%
21:00 +13°C° 0 mm 2 mps 756 mmHg 86%
22:00 +13°C° 0 mm 2 mps 756 mmHg 86%
23:00 +13°C° 0 mm 2 mps 756 mmHg 87%

1 October, Thursday

Time Temperature Precipitation Wind Pressure Humidity
00:00 +13°C° 0 mm 2 mps 755 mmHg 87%
01:00 +13°C° 0 mm 2 mps 755 mmHg 88%
02:00 +13°C° 0 mm 2 mps 754 mmHg 89%
03:00 +12°C° 0 mm 3 mps 754 mmHg 91%
04:00 +12°C° 0 mm 3 mps 753 mmHg 92%
05:00 +12°C° 0 mm 3 mps 753 mmHg 94%
06:00 +12°C° 0 mm 3 mps 753 mmHg 95%
07:00 +13°C° 0 mm 3 mps 752 mmHg 90%
08:00 +16°C° 0 mm 3 mps 752 mmHg 84%
09:00 +17°C° 0 mm 3 mps 751 mmHg 79%
10:00 +18°C° 0 mm 4 mps 751 mmHg 73%
11:00 +20°C° 0 mm 4 mps 750 mmHg 67%
12:00 +21°C° 0 mm 4 mps 750 mmHg 61%
13:00 +21°C° 0 mm 4 mps 749 mmHg 61%
14:00 +21°C° 0 mm 4 mps 749 mmHg 62%
15:00 +21°C° 0 mm 3 mps 748 mmHg 62%
16:00 +20°C° 0 mm 3 mps 748 mmHg 67%
17:00 +18°C° 0 mm 3 mps 748 mmHg 71%
18:00 +16°C° 0 mm 3 mps 747 mmHg 75%
19:00 +16°C° 0 mm 3 mps 747 mmHg 76%
20:00 +14°C° 0 mm 3 mps 747 mmHg 76%
21:00 +14°C° 0 mm 4 mps 747 mmHg 77%
22:00 +14°C° 0 mm 4 mps 746 mmHg 79%
23:00 +13°C° 0 mm 4 mps 746 mmHg 82%
Show more